カタログに戻る

STARLINK-37665

運用中通信VLEO
NORAD 69238·PAYLOAD·🇺🇸 United States

打ち上げ May 29, 2026 から Cape Canaveral Space Force Station

Loading…

次のパス (今後24時間)

TLE

最新Source: CelesTrak SupGP

元期: Sep 15, 2026, 03:02 UTC

1 69238C 26117A   26258.12687500 -.00024500  00000+0 -72398-3 0  2589
2 69238  53.1567 178.9904 0001371  86.7824 158.0168 15.34396927    11

AllMySatでSTARLINK-37665をリアルタイム追跡

Download on the App Store